Content
SEND FEEDBACK

Daily
Averages
Monthly
Summary
United States of America

RAPID CITY, SOUTH DAKOTA


Home > North America > United States > South Dakota
Elevation: 3162 feet     Latitude: 44 03N     Longitude: 103 04W

WEATHER
 
SELECT A DAY
Number of Records: 200,504;   Date Range: 1/1/95 - 9/16/14
 
SHARE

PRINT THIS DATA

[ ← Previous Day ]
WEATHER ALMANAC - MARCH 5, 2013
[ Next Day → ]
[ °C ]   °F
Weather ElementAverageHighLow
Temperature18.7 °F30.9 °F (2:52 pm)7 °F (6:52 am)
Dewpoint8.4 °F12 °F (10:52 am)1.9 °F (6:52 am)
Humidity65.8 %81 % (2:52 am)46 % (2:52 pm)
Barometer30.41 in30.49 in (7:52 am)30.30 in (7:01 am)
Wind Speed7.9 mph17.3 mph (10:52 am)
Wind Gust21.9 mph (10:52 am)
Weather ElementAverage
Visibility9.7 mi
Wind DirectionSSW (186.3 °)

Weather ElementTotal
Precipitation---
Heating Degree Days46.1 (Base 65)
Averaged from 24 records on March 5, 2013
WEATHER CONDITIONS BREAKOUT
WIND DIRECTION BREAKOUT
WEATHER BY HOUR - MARCH 5, 2013
[ °C ]   °F
Local TimeTemperatureDewpointHumidityBarometerVisibilityWind DirectionWind SpeedGust SpeedPrecipitationEventsConditions
1:52 AM14.0 °F9.0 °F80 %30.38 in9.0 miNNW (340°)16.1 mph0.00 inSnowLight Snow
2:52 AM12.9 °F8.1 °F81 %30.39 in9.0 miNorth (350°)13.8 mph0.00 inSnowLight Snow
3:52 AM14.0 °F7.0 °F74 %30.41 in9.0 miNNW (330°)9.2 mph0.00 inSnowLight Snow
4:52 AM9.0 °F3.9 °F80 %30.45 in9.0 miWNW (290°)3.5 mph0.00 inSnowLight Snow
5:52 AM8.1 °F3.0 °F80 %30.48 in9.0 miCalm0.00 inSnowLight Snow
6:52 AM7.0 °F1.9 °F80 %30.48 in9.0 miNW (320°)6.9 mph0.00 inSnowLight Snow
7:01 AM8.6 °F3.2 °F79 %30.30 in9.0 miNNE (30°)5.8 mph0.00 inClear
7:52 AM12.9 °F7.0 °F77 %30.49 in10.0 miNorth (350°)6.9 mph0.00 inClear
8:52 AM18.0 °F10.0 °F71 %30.48 in10.0 miNorth (350°)9.2 mphClear
9:52 AM21.9 °F10.9 °F63 %30.47 in10.0 miNNE (20°)12.7 mph0.00 inClear
10:52 AM26.1 °F12.0 °F55 %30.45 in10.0 miNorth (360°)17.3 mph21.9 mphClear
11:52 AM27.0 °F12.0 °F53 %30.46 in10.0 miNorth (10°)11.5 mph18.4 mphClear
12:52 PM30.0 °F12.0 °F47 %30.42 in10.0 miNorth (350°)9.2 mphClear
1:52 PM30.0 °F12.0 °F47 %30.41 in10.0 miNorth (10°)8.1 mphClear
2:52 PM30.9 °F12.0 °F46 %30.40 in10.0 miENE (60°)5.8 mphClear
3:52 PM30.9 °F12.0 °F46 %30.38 in10.0 miNorth (360°)4.6 mphClear
4:52 PM28.9 °F10.9 °F47 %30.40 in10.0 miEast (100°)6.9 mphClear
5:52 PM21.9 °F9.0 °F58 %30.40 in10.0 miEast (90°)8.1 mphClear
6:52 PM21.9 °F9.0 °F58 %30.41 in10.0 miEast (100°)5.8 mphClear
7:52 PM18.0 °F7.0 °F62 %30.40 in10.0 miEast (100°)3.5 mphClear
8:52 PM16.0 °F8.1 °F71 %30.40 in10.0 miSE (130°)5.8 mphClear
9:52 PM15.1 °F7.0 °F70 %30.38 in10.0 miSE (140°)4.6 mphClear
10:52 PM14.0 °F7.0 °F74 %30.36 in10.0 miSE (140°)6.9 mphClear
11:52 PM12.0 °F7.0 °F80 %30.34 in10.0 miSE (140°)8.1 mphClear
Hourly data recorded from KRAP, located miles away from Rapid City, South Dakota







STORIES FROM OUR PARTNERS